GEFSNGP_500_meanwind_198.txt.gz
Wind_Speed
42 41 42 41 40 40 42 42 43 41 40 39 38 39 40 40 41 41 41 41 42 42 41 40 40 39 39 38 38 38 38 37 36 36 36 36 37 37 37 36 35 36 37 38
43 41 42 43 41 41 41 41 41 41 40 37 38 39 40 41 42 42 42 42 42 42 41 41 40 40 39 37 37 37 37 36 36 36 36 35 36 36 36 36 35 35 36 36
43 42 43 44 40 40 40 40 41 41 39 39 39 39 40 40 41 43 43 43 42 43 41 40 40 39 38 38 38 37 36 35 36 36 36 36 36 35 34 35 34 34 34 34
43 43 44 41 39 39 39 39 39 40 39 40 41 40 40 41 41 42 43 42 42 42 41 40 39 38 38 37 36 35 35 35 34 34 34 34 34 33 33 32 33 33 33 33
43 43 44 40 39 39 39 39 39 40 40 40 40 40 40 40 40 41 42 41 41 41 41 39 37 37 36 35 34 34 34 34 33 32 31 31 31 32 31 31 32 33 33 33
41 41 41 39 39 39 40 41 39 40 40 40 40 40 39 39 39 39 39 39 38 38 37 36 36 36 35 33 32 32 32 31 31 30 29 29 29 29 29 28 28 29 29 30
39 40 40 39 39 38 39 40 39 39 40 40 40 40 38 37 37 38 38 37 36 35 35 34 34 33 33 31 31 30 30 29 28 28 28 28 28 28 28 27 27 27 27 28
38 39 38 37 38 38 39 39 39 39 39 39 39 38 37 36 36 36 36 35 34 33 32 32 32 31 30 29 29 28 27 26 26 25 25 25 25 26 27 27 26 26 27 27
38 37 36 37 37 37 38 39 38 38 38 38 38 37 36 36 36 36 35 34 33 33 32 31 31 30 28 26 26 25 24 24 24 23 23 23 24 25 26 25 25 25 26 26
36 36 36 36 36 37 38 38 38 38 37 37 36 35 35 35 35 35 34 33 32 31 30 28 27 27 26 25 24 23 22 22 22 22 22 22 23 23 24 24 24 24 24 25
34 34 35 35 35 36 37 37 37 37 36 36 35 34 33 33 32 32 31 31 30 29 27 26 25 23 23 22 21 21 21 21 21 21 22 21 21 21 22 21 22 22 22 23
35 34 35 34 34 35 36 36 36 35 34 34 34 33 32 31 31 30 29 28 27 27 26 25 24 23 23 22 22 21 21 21 21 21 21 21 20 20 21 20 20 21 21 22
36 35 35 34 34 34 34 34 34 34 33 33 32 31 30 29 29 28 26 25 25 25 25 24 22 22 21 21 21 21 21 21 20 21 21 20 20 20 20 20 19 19 20 21
34 33 33 32 32 32 32 32 32 32 31 30 29 28 27 26 26 26 24 23 23 23 22 21 21 21 21 21 21 21 21 21 21 20 20 20 20 19 19 18 18 18 19 20
30 30 30 30 30 30 30 30 30 29 29 28 27 26 25 25 24 23 23 22 21 20 20 19 19 19 19 20 20 20 20 20 20 19 19 19 20 19 19 19 18 18 19 20
27 28 28 29 29 29 28 28 28 27 27 26 25 24 23 23 22 22 22 21 20 19 18 18 18 19 19 19 19 19 19 19 19 19 18 18 18 18 18 18 18 17 17 18
25 26 27 27 27 26 26 26 25 25 24 23 23 22 22 22 22 22 22 21 20 19 19 19 18 18 18 18 18 18 17 17 17 18 18 18 18 18 18 17 17 17 17 17
23 24 24 24 24 23 24 24 23 23 23 23 23 22 22 21 21 21 21 21 20 19 19 19 19 19 18 18 18 17 17 16 17 17 17 17 17 17 18 18 18 17 18 18
22 23 23 23 22 22 23 23 23 23 23 22 22 22 22 22 21 21 21 20 20 19 19 19 18 18 17 17 17 17 17 17 17 17 17 17 17 17 17 18 17 17 17 18
22 22 22 22 22 23 23 23 23 23 22 22 22 22 22 22 22 21 21 20 20 19 19 18 18 17 17 17 17 17 17 17 17 17 17 17 17 17 17 17 17 18 18 18
22 22 22 22 22 22 23 23 22 22 22 22 22 22 22 22 21 21 20 20 19 19 18 18 18 17 17 17 17 17 17 17 17 17 17 17 17 17 17 17 17 17 17 18
22 22 22 22 22 22 22 22 22 22 21 21 21 21 20 20 20 20 20 19 18 18 17 17 17 17 17 16 17 17 17 17 17 17 17 17 16 16 16 17 17 17 17 17
20 20 20 21 21 21 21 21 21 20 20 20 20 19 19 19 19 18 18 18 17 16 16 16 16 16 16 16 16 16 16 16 17 17 16 16 15 16 16 16 17 17 17 17
19 19 19 19 20 20 20 20 21 20 20 20 19 19 18 17 17 17 17 17 16 16 16 16 16 16 15 14 15 15 15 16 16 16 16 15 15 15 16 16 16 17 17 17
18 19 19 19 19 19 20 20 20 19 19 18 18 17 17 16 16 16 16 16 16 16 16 16 16 15 15 14 14 14 15 15 16 16 15 15 14 15 15 16 17 17 17 17
18 18 18 18 19 19 19 18 18 18 18 17 16 16 16 16 15 15 15 15 15 15 15 15 15 15 15 15 15 15 16 15 15 15 15 14 14 14 15 16 17 17 17 17
18 18 18 18 18 18 17 17 17 17 16 16 15 15 15 15 15 15 15 14 14 14 14 14 14 14 15 15 15 15 15 15 15 14 15 14 15 15 15 16 17 17 17 17

GEFSNGP_500_meanwind_204.txt.gz
Wind_Speed
39 39 39 39 37 37 38 39 40 39 38 36 36 38 38 38 38 38 37 37 37 38 38 38 38 39 40 40 41 41 40 39 39 39 39 38 37 38 37 37 37 37 37 37
39 38 39 40 38 37 37 38 39 38 38 35 36 38 39 39 38 38 37 38 38 38 38 38 38 38 39 39 39 39 39 38 38 37 37 37 36 36 35 35 35 35 35 35
41 40 41 41 37 37 37 37 38 38 37 37 38 39 39 39 39 38 38 38 38 39 39 38 38 38 38 38 37 37 36 36 36 36 36 36 36 35 34 34 33 34 34 35
42 41 42 39 38 38 38 38 38 39 38 38 38 39 39 38 38 38 38 38 38 37 37 37 37 37 37 36 36 36 35 35 34 35 34 34 34 34 33 32 32 33 33 34
40 41 41 38 37 37 38 38 37 37 37 37 37 37 37 37 37 37 37 37 36 36 36 36 36 36 36 36 36 35 35 35 35 34 33 32 32 31 31 31 31 31 31 31
38 39 39 35 35 35 36 36 34 34 34 34 35 36 35 36 36 37 37 36 36 36 37 37 37 37 36 36 36 36 36 35 34 33 32 32 32 31 30 29 28 28 28 28
35 36 36 33 33 34 35 34 33 32 33 33 34 34 34 35 36 37 37 37 37 37 37 37 37 37 37 36 36 36 35 35 33 32 32 31 31 30 28 26 25 25 26 26
32 34 33 32 33 33 33 33 33 33 32 33 33 33 34 35 36 37 37 37 37 37 38 37 37 36 36 36 35 35 34 33 32 31 30 29 28 27 26 25 24 24 25 25
31 30 30 31 31 31 31 32 31 32 32 33 33 33 34 34 35 35 36 36 36 36 36 36 35 35 34 33 33 32 31 30 29 29 28 27 26 24 25 25 25 24 24 24
31 30 30 30 30 30 30 31 31 31 32 32 32 33 33 34 34 34 34 34 34 34 33 33 32 31 31 30 29 28 26 26 25 25 25 25 25 24 24 24 24 23 23 23
29 28 28 28 29 30 30 31 31 31 32 32 32 32 32 32 32 31 31 30 30 30 30 29 28 27 26 26 26 25 24 24 24 23 23 23 23 22 22 22 22 22 22 22
28 28 28 28 28 28 28 28 29 30 30 30 31 30 30 30 30 29 29 28 27 27 27 26 25 25 24 24 24 24 23 23 23 22 22 22 22 21 22 22 21 20 20 21
28 28 28 28 28 28 28 28 28 29 29 29 29 29 29 28 28 27 27 26 25 25 25 24 24 24 23 22 22 22 23 22 22 22 22 22 21 21 21 21 20 19 19 19
27 27 27 27 28 27 27 27 28 28 28 28 28 27 27 26 26 25 25 24 24 23 23 22 22 22 21 20 20 20 20 20 20 20 20 20 19 19 19 19 18 18 17 17
25 25 25 26 27 28 28 27 27 27 28 28 27 27 26 25 24 24 23 22 22 22 22 21 20 19 19 18 17 17 17 17 17 17 17 16 16 16 17 17 17 16 16 16
23 23 23 24 25 26 27 27 27 27 27 27 26 25 24 23 22 22 21 21 20 20 20 19 18 18 18 16 16 15 15 14 15 15 15 15 15 15 15 15 15 15 15 15
21 22 22 23 23 23 23 23 23 24 24 24 23 22 21 21 20 20 20 20 20 19 18 17 17 17 17 17 16 15 14 14 14 13 13 14 14 14 14 14 14 14 14 14
20 22 22 22 22 21 21 21 21 21 22 22 21 21 20 20 20 19 19 20 20 19 18 17 16 16 16 15 15 14 13 12 12 12 12 13 14 14 14 15 15 15 14 14
19 21 22 22 21 21 20 20 21 21 21 21 21 21 20 20 20 20 19 19 19 18 18 16 16 15 15 15 15 15 14 13 12 12 12 12 13 14 14 14 14 14 14 14
18 19 20 20 20 20 20 20 21 21 21 21 20 20 20 19 19 19 19 18 17 17 16 16 16 15 15 15 15 15 14 13 13 12 13 13 14 14 14 14 15 15 15 15
17 18 19 20 20 20 20 20 20 20 20 20 19 19 18 17 17 17 16 16 16 15 15 15 15 14 14 14 14 15 15 14 13 13 13 13 13 13 13 14 15 15 14 14
16 16 17 18 19 20 19 19 19 19 19 18 18 17 16 16 16 16 16 15 15 15 15 15 15 14 14 14 14 14 14 14 13 13 13 13 13 12 12 13 13 13 13 13
15 16 16 17 17 18 18 18 18 18 18 18 17 16 16 16 16 15 15 15 15 15 15 15 15 15 14 14 14 14 14 13 13 13 13 13 12 12 12 12 12 12 13 13
16 16 16 16 16 17 17 17 17 17 17 18 17 17 17 16 16 16 15 15 15 15 15 15 14 14 14 14 14 13 13 13 13 13 13 13 12 12 12 12 12 12 13 13
16 16 16 16 16 16 16 16 16 17 17 18 18 17 17 17 16 16 15 14 14 15 15 15 15 14 13 13 13 13 13 13 13 13 13 12 12 13 13 13 13 12 13 13
16 16 15 15 15 15 15 15 15 16 16 16 16 16 16 16 16 16 15 15 14 14 14 14 14 13 13 13 13 12 12 13 13 12 12 12 13 13 13 13 14 13 13 13
14 14 14 14 14 14 14 14 14 14 14 14 15 15 15 15 15 15 15 14 14 14 14 13 13 13 13 13 13 12 12 13 12 12 12 12 12 13 13 14 14 14 13 13

GEFSNGP_500_meanwind_210.txt.gz
Wind_Speed
42 43 43 43 42 41 42 43 44 43 42 41 42 42 42 41 41 40 40 40 40 41 40 40 40 40 41 42 43 43 42 42 41 41 41 41 40 40 40 40 41 41 41 42
41 42 43 44 43 43 42 42 42 42 40 39 40 40 40 39 39 39 39 40 40 40 40 40 41 41 41 41 41 41 41 40 40 41 40 39 39 38 39 39 39 39 40 39
40 40 42 42 41 41 42 41 41 41 39 38 38 38 39 38 38 39 39 40 40 39 39 40 40 40 40 40 40 40 40 40 40 40 40 39 39 39 40 38 37 38 38 37
41 40 43 40 39 39 40 39 39 39 38 38 38 38 38 39 39 39 39 40 41 41 41 40 40 39 39 39 39 39 39 39 40 40 39 38 38 38 38 37 36 36 35 34
40 42 42 40 38 37 38 38 37 37 37 37 38 39 39 39 40 40 40 40 41 41 41 40 39 38 38 38 38 38 37 38 38 38 37 36 35 35 35 35 35 33 32 32
37 38 39 38 37 38 39 39 37 37 36 36 37 38 38 38 39 39 39 39 39 39 38 38 37 37 37 37 37 37 38 38 38 37 36 35 35 35 34 34 33 31 30 30
33 35 36 35 35 36 38 37 37 37 37 36 36 36 36 37 38 37 37 37 37 37 37 37 37 36 36 36 36 37 37 37 37 37 36 35 35 35 34 32 31 30 30 29
31 32 32 31 32 34 35 35 34 35 35 35 34 34 34 35 36 36 36 36 36 36 36 37 37 37 36 36 36 36 37 37 37 37 37 36 35 33 32 31 30 30 29 28
29 30 30 31 32 32 33 33 32 32 32 33 33 33 34 34 34 34 35 35 35 35 35 35 36 35 35 34 35 35 35 35 36 36 35 34 33 31 31 30 29 29 28 26
28 27 28 29 31 31 31 31 31 30 30 31 31 32 32 33 34 34 34 35 34 34 33 33 33 33 33 33 33 33 33 33 33 33 32 31 30 30 29 28 27 26 26 25
27 27 27 27 28 29 29 29 29 30 29 29 29 30 31 31 32 33 33 33 33 32 32 32 31 31 32 32 32 31 31 30 29 29 28 28 28 28 27 26 26 25 24 24
26 26 27 26 27 28 28 29 29 29 29 29 29 29 29 30 30 31 31 31 31 30 30 30 30 30 30 30 30 30 29 28 27 26 26 26 26 26 25 25 24 24 23 23
26 26 26 25 25 26 27 27 27 28 29 28 28 28 29 29 29 29 28 28 28 27 27 27 27 27 27 27 27 27 26 26 26 25 25 25 25 24 24 23 23 23 22 21
25 25 25 24 25 25 25 26 26 26 27 27 27 28 27 27 27 26 26 25 25 25 24 24 24 24 25 25 24 24 24 24 24 24 24 23 23 23 23 22 22 22 21 21
24 25 24 24 25 25 25 26 26 26 26 26 27 27 27 26 26 25 25 24 24 24 23 23 22 22 22 22 22 22 22 22 22 21 21 21 21 21 21 21 21 21 20 19
22 23 23 24 24 25 25 27 27 27 27 27 26 26 26 25 25 24 24 24 24 23 23 22 22 21 21 20 20 20 20 20 20 19 19 19 19 19 19 19 19 18 18 17
21 21 22 23 23 24 25 26 27 27 27 27 27 26 25 25 24 24 24 23 23 22 22 21 21 20 20 19 19 19 18 18 17 17 16 16 16 15 15 15 16 16 16 16
21 21 21 22 22 24 25 26 26 26 26 26 26 25 24 24 24 24 23 22 22 21 20 20 19 18 18 18 17 17 16 15 14 14 13 13 13 13 13 13 14 14 14 14
20 21 22 23 23 24 24 25 25 25 25 25 25 24 24 23 23 22 21 20 20 19 19 18 17 16 16 15 15 14 13 13 12 12 12 11 11 11 11 11 12 12 12 13
19 20 21 22 23 23 24 24 24 24 24 24 23 22 22 22 21 20 19 19 19 18 17 16 16 16 16 15 15 14 13 12 12 11 11 11 11 11 11 11 11 11 11 11
18 19 19 19 20 21 22 22 22 22 23 22 21 21 21 20 20 19 19 18 18 17 16 16 16 15 15 14 14 14 13 12 12 11 10 10 10 10 9 9 9 9 9 9
18 18 17 17 18 18 19 19 19 19 20 19 19 19 19 19 19 18 18 17 16 16 15 15 15 15 14 14 14 14 13 12 12 11 11 10 10 9 9 8 8 8 8 8
16 16 16 16 16 16 17 16 16 16 17 17 17 16 16 17 17 17 16 16 16 15 15 15 14 14 13 13 13 13 13 12 12 11 11 10 9 9 8 8 8 8 8 8
15 15 16 16 16 15 15 15 14 15 15 15 15 15 15 16 16 16 15 15 15 15 15 15 15 14 13 13 12 12 12 12 12 11 10 10 9 9 8 9 9 9 9 9
15 15 15 14 14 14 13 13 13 13 14 14 14 15 15 15 15 15 15 15 14 14 14 14 14 13 12 12 11 11 11 11 11 10 10 10 9 8 8 8 9 10 9 9
14 14 13 13 13 12 12 12 12 12 12 13 13 13 13 14 14 14 14 14 14 13 13 13 13 12 11 11 10 10 10 10 10 10 10 10 10 9 9 9 10 10 9 9
12 12 12 12 11 11 11 11 11 11 11 11 12 12 12 12 13 13 13 13 13 13 12 12 11 11 11 10 10 9 9 9 10 10 10 10 10 10 10 10 11 11 11 11

GEFSNGP_500_meanwind_216.txt.gz
Wind_Speed
39 39 38 39 39 40 41 41 42 40 40 40 40 40 41 41 40 39 39 39 40 39 39 39 39 39 40 40 41 41 42 41 42 43 44 45 45 46 46 47 47 46 45 44
37 38 39 39 38 39 39 39 40 40 39 39 40 40 40 39 39 39 39 39 40 40 40 40 39 39 40 40 40 40 40 41 42 42 43 44 44 44 45 45 44 43 43 43
36 36 38 39 38 38 38 38 39 39 38 38 37 38 38 38 38 38 38 38 39 39 40 40 40 40 39 39 39 39 40 40 41 41 42 42 42 43 43 42 42 41 41 40
36 36 37 37 36 37 37 37 38 37 37 37 36 36 36 36 37 37 37 37 38 38 38 40 40 39 39 39 39 39 39 40 40 40 41 40 41 40 40 39 39 39 39 39
33 34 35 34 34 34 34 35 35 36 36 36 36 36 36 36 36 36 36 37 37 37 38 38 39 39 38 38 38 38 38 39 38 39 39 38 38 38 37 37 37 37 37 38
33 33 33 32 32 33 34 34 33 34 35 35 35 35 35 35 35 36 36 36 37 37 37 36 36 36 37 37 36 36 36 37 37 37 37 37 37 36 36 36 36 35 35 35
30 32 32 31 30 31 32 32 32 33 34 35 35 35 34 34 34 35 35 35 35 35 35 35 35 35 35 35 35 34 35 36 36 36 36 36 36 36 35 34 33 33 33 32
28 29 30 30 30 31 31 32 31 32 32 33 33 33 33 33 33 33 33 33 33 33 33 34 34 35 35 34 34 34 34 35 35 35 34 34 35 34 33 33 32 31 31 30
27 27 27 27 28 29 29 29 29 30 30 31 31 31 31 32 32 32 32 32 32 32 33 33 33 34 35 34 34 34 35 34 34 33 33 33 32 32 32 31 30 30 29 29
24 24 25 25 25 26 26 27 28 28 29 30 30 30 31 31 32 32 32 32 32 32 32 32 32 33 33 33 33 33 32 32 32 32 31 31 31 30 29 29 28 28 27 28
23 23 23 24 24 25 25 26 26 27 27 28 28 29 30 30 31 31 31 31 31 31 32 32 32 32 32 31 31 30 30 30 30 30 30 29 29 28 27 27 27 27 27 27
22 22 23 23 24 25 25 25 26 26 26 26 27 28 28 29 30 30 30 30 30 31 31 31 31 31 31 31 30 29 28 28 28 27 28 28 27 27 26 26 26 26 26 26
20 21 21 21 23 23 24 24 25 26 26 26 27 26 26 27 28 28 28 29 29 29 29 29 29 29 29 28 28 27 26 26 26 26 26 26 26 26 26 26 26 26 26 26
18 19 20 21 22 23 23 23 23 24 24 24 24 25 25 25 25 26 26 26 26 27 27 26 26 26 26 25 25 25 25 25 24 24 24 24 24 25 25 25 25 25 25 25
18 18 19 20 21 22 22 22 22 23 22 23 23 24 24 24 24 24 24 24 24 24 24 23 23 23 23 23 22 22 22 22 22 22 22 22 23 23 22 23 23 23 23 24
17 18 19 20 20 21 22 22 22 23 23 23 23 23 23 23 23 23 22 23 22 22 22 22 21 21 22 22 21 20 20 20 20 20 20 20 21 21 21 21 22 21 21 22
17 18 19 20 20 21 21 21 22 22 23 23 23 23 23 23 22 22 21 22 21 21 21 21 21 21 21 21 21 20 20 20 20 20 20 20 20 20 20 21 21 21 20 20
16 17 18 18 19 20 21 22 21 22 22 23 23 23 23 22 22 21 21 21 21 21 21 20 20 20 20 19 19 19 19 20 20 20 20 19 19 19 19 18 18 17 17 17
17 18 18 19 19 19 20 22 22 22 22 22 22 22 22 22 22 21 21 20 20 20 20 19 19 19 18 18 18 18 18 18 18 18 17 17 17 17 16 15 15 14 14 14
17 18 18 19 19 19 20 20 20 21 21 21 21 21 21 21 21 21 20 20 20 20 19 19 19 18 18 17 16 16 16 15 15 15 14 14 14 14 14 13 12 12 11 11
17 17 17 17 17 18 18 18 19 19 19 19 19 20 19 20 20 19 19 19 19 19 18 18 18 18 17 16 15 15 14 14 14 14 13 12 12 12 12 11 11 10 9 9
15 15 15 16 16 16 16 17 17 17 17 17 17 18 18 18 18 18 18 18 18 17 17 17 17 17 16 15 14 13 13 12 12 12 11 11 11 10 11 10 10 9 8 8
14 14 14 14 14 14 14 14 14 14 14 14 14 15 15 16 16 17 17 17 17 17 16 16 16 15 14 13 12 12 11 11 11 11 10 9 9 9 9 9 9 8 7 7
13 13 12 12 12 11 11 11 12 12 12 12 12 12 12 13 13 14 14 15 15 15 15 15 14 14 13 12 12 11 11 11 10 9 9 8 8 7 7 8 8 8 7 8
12 11 11 10 10 10 10 10 10 10 10 10 10 10 10 10 11 11 11 12 13 13 13 13 13 12 12 12 12 11 11 11 10 9 8 8 8 7 7 7 7 7 8 8
10 9 9 9 9 8 8 8 8 8 8 8 9 8 8 8 8 9 10 11 11 11 11 11 12 11 11 11 11 10 10 10 9 9 8 8 8 8 8 7 7 7 8 9
9 8 8 8 7 7 6 6 6 6 7 7 7 7 7 7 7 7 8 9 9 9 9 9 10 10 10 10 10 9 9 9 9 9 8 9 9 9 8 8 7 8 8 9

GEFSNGP_500_meanwind_222.txt.gz
Wind_Speed
36 37 38 40 40 39 39 40 40 39 39 39 40 40 40 40 39 39 39 40 40 40 39 39 40 41 41 41 41 41 41 41 42 42 43 43 44 44 44 45 46 47 47 48
35 36 38 38 39 40 39 39 40 40 39 39 39 39 39 39 39 39 39 39 39 39 40 40 40 41 41 41 41 41 41 41 42 42 43 43 43 43 43 44 44 45 46 46
32 33 35 37 37 38 39 39 39 40 38 38 38 38 38 38 37 37 38 38 38 38 39 40 40 40 41 40 40 41 40 41 42 42 42 42 42 42 42 43 43 44 44 44
33 32 34 34 35 36 37 37 38 38 39 39 39 39 39 39 38 38 37 38 38 38 39 40 40 40 40 39 39 40 40 40 41 41 42 42 42 42 41 41 41 42 42 42
34 34 34 34 34 34 35 35 35 36 37 39 39 39 38 38 38 37 38 38 39 39 39 39 40 40 39 39 39 40 39 39 40 40 41 41 41 41 41 41 41 40 39 39
31 32 32 32 32 32 33 34 35 35 36 36 37 37 37 37 36 36 36 37 38 38 39 39 39 39 39 39 39 39 39 39 39 39 40 40 40 40 40 40 40 39 38 37
28 30 31 30 30 31 32 32 33 34 34 35 36 36 35 36 36 36 36 36 37 37 37 37 38 38 39 40 40 39 38 38 38 39 39 39 38 38 38 38 38 37 36 36
26 28 29 29 30 31 31 31 31 32 33 33 34 34 34 34 35 35 35 36 36 36 37 37 37 38 38 38 38 37 37 38 38 39 38 37 37 36 36 35 35 35 34 34
26 27 28 28 29 30 31 31 31 31 31 32 32 34 34 34 35 35 36 37 37 36 36 36 37 37 36 36 36 36 36 37 37 37 36 35 35 33 32 32 33 33 33 33
26 27 27 27 28 29 30 30 30 29 30 31 32 32 33 33 34 35 36 36 36 36 35 34 35 35 35 35 35 35 35 35 35 35 34 33 32 31 31 31 32 32 32 32
24 24 25 26 27 27 27 27 27 28 29 30 30 31 31 32 33 33 34 34 35 35 35 35 34 34 34 34 34 33 33 33 33 33 32 31 31 31 30 31 32 32 31 30
22 23 23 23 24 25 26 27 28 28 29 30 31 31 31 31 31 32 32 32 33 35 35 35 35 34 34 34 33 31 31 31 31 31 30 30 30 30 30 30 30 30 29 28
22 22 22 22 23 24 24 25 27 28 29 29 30 30 31 31 31 31 31 32 33 34 34 34 34 34 33 32 31 30 30 30 29 29 29 29 29 29 29 28 28 28 28 27
21 21 22 22 22 23 23 24 25 26 27 28 29 30 30 30 30 30 31 31 32 32 33 33 33 32 31 31 30 30 29 29 29 28 27 27 27 27 27 26 26 26 26 26
19 20 21 21 22 23 23 24 25 26 27 27 28 29 29 29 29 29 30 30 31 31 31 31 30 29 29 29 29 29 29 28 28 27 27 26 26 26 25 25 25 24 24 25
18 20 21 21 21 22 22 23 24 25 25 26 27 27 27 27 27 27 27 28 27 27 28 27 27 27 27 27 28 28 28 28 27 27 26 26 26 25 25 25 24 24 24 24
18 19 20 21 21 21 22 23 23 24 24 25 26 26 27 27 27 26 26 26 26 25 25 25 25 25 25 26 26 26 26 26 26 25 25 25 25 25 24 24 23 23 23 24
19 19 20 21 21 21 22 22 23 23 24 24 25 25 25 25 25 25 25 24 24 24 24 24 24 24 24 24 23 23 23 24 24 23 23 23 23 23 22 22 22 22 22 22
18 18 19 20 21 21 21 22 22 23 23 23 24 24 24 24 24 24 23 23 23 23 23 24 24 24 23 23 22 22 22 21 21 21 21 21 21 21 20 20 20 20 20 19
17 17 17 18 19 19 19 20 21 21 22 22 23 24 24 23 23 22 22 22 23 23 23 24 24 23 22 22 22 21 20 20 20 20 20 20 20 20 19 19 19 19 18 17
16 17 17 18 18 18 18 18 18 19 19 20 21 22 22 22 22 22 22 22 22 22 22 22 22 22 22 21 20 20 20 19 19 19 19 19 18 18 18 17 17 17 16 15
16 16 16 16 16 17 17 17 17 17 18 18 18 18 19 19 20 20 20 20 19 19 19 20 20 20 20 20 19 19 19 19 18 18 17 17 16 16 15 15 15 14 13 12
14 15 15 15 15 15 15 16 16 16 16 16 16 16 17 18 18 17 17 17 17 16 16 17 17 16 17 17 17 17 17 16 16 15 15 14 14 13 13 12 11 10 9 9
14 14 14 14 14 14 14 14 14 14 14 15 15 15 15 15 15 15 14 14 14 14 14 14 14 14 14 14 15 14 14 13 13 12 12 12 11 10 9 9 8 7 7 6
14 13 13 13 12 12 12 12 12 12 12 12 12 12 12 12 12 12 12 12 11 11 11 12 12 12 11 12 12 12 11 10 10 10 9 9 8 8 7 7 6 5 5 5
12 12 12 11 10 10 9 9 9 9 9 10 10 10 10 10 10 10 10 10 10 10 10 10 10 10 10 10 10 10 10 9 9 8 8 8 7 7 6 5 5 5 5 4
11 10 10 9 9 8 8 8 8 8 8 8 8 8 9 9 9 9 10 10 9 9 9 9 8 8 9 9 8 8 8 8 8 8 8 8 8 7 6 5 5 5 4 4

GEFSNGP_500_meanwind_228.txt.gz
Wind_Speed
33 34 34 34 36 37 40 39 38 37 37 37 38 39 39 40 41 41 40 39 39 39 40 40 40 40 40 40 41 41 42 43 43 44 44 44 43 44 44 44 43 43 43 43
31 32 33 33 33 35 36 38 37 37 36 35 36 37 38 39 39 40 40 40 40 40 40 40 40 40 39 40 40 40 41 42 42 42 42 42 43 43 43 43 42 43 43 43
30 31 33 34 32 33 34 35 35 36 35 34 35 35 36 37 38 38 38 38 39 39 40 40 40 40 40 40 39 39 40 41 41 41 41 41 42 43 42 42 42 42 43 43
28 30 32 32 33 33 33 33 35 36 35 34 35 35 36 36 37 37 37 37 38 38 38 39 39 40 40 40 40 39 40 40 40 40 40 42 42 42 43 42 42 43 43 42
26 27 29 30 31 32 32 31 33 34 35 34 34 35 35 35 36 37 37 37 37 38 38 38 38 39 39 40 40 40 40 40 40 40 41 42 42 42 42 42 42 42 42 42
25 26 27 27 28 29 31 31 30 31 33 33 33 33 34 35 36 36 37 38 38 37 37 37 37 38 39 39 39 40 40 40 40 40 40 41 41 41 41 41 41 41 41 41
23 25 26 26 27 27 29 29 29 31 31 32 33 34 34 34 35 36 37 38 38 38 38 37 37 37 38 38 38 39 39 39 39 39 39 39 39 39 40 40 41 40 40 40
23 24 24 25 27 28 28 28 29 30 31 31 31 32 33 33 34 35 36 36 37 37 37 37 37 37 37 37 37 38 38 38 39 39 38 38 38 39 39 39 39 39 39 38
22 22 22 23 25 27 28 28 28 29 30 30 30 30 31 32 33 34 35 36 36 36 36 36 36 37 37 37 37 37 38 38 38 38 38 38 38 37 37 37 37 37 36 36
21 21 22 22 23 24 25 26 27 28 29 30 30 30 31 32 32 33 34 34 34 34 35 35 35 35 36 36 36 37 37 37 37 37 36 36 36 36 36 36 36 35 35 35
20 20 21 21 22 23 24 25 27 27 28 29 29 30 31 31 31 32 32 33 33 34 34 35 35 35 35 36 36 36 36 35 35 35 35 35 35 35 35 35 34 34 34 34
19 20 21 21 22 22 23 24 25 27 28 28 29 30 30 31 31 31 32 32 33 33 34 34 35 35 35 35 35 35 34 34 34 34 34 34 34 34 34 33 33 32 32 32
18 18 19 20 21 21 23 23 24 25 26 26 27 28 29 29 30 30 31 31 31 32 32 33 33 34 34 35 35 35 34 34 33 33 33 33 32 32 32 32 32 31 31 30
18 19 19 19 20 20 21 22 23 24 24 25 26 27 28 28 29 29 30 30 30 31 31 31 32 32 33 33 33 33 33 33 33 32 32 32 31 31 31 30 29 29 29 29
17 18 19 19 20 20 20 21 22 23 24 24 25 26 26 27 28 29 29 30 30 31 31 31 31 31 31 31 31 32 32 33 33 32 32 31 30 30 29 29 29 28 28 29
17 18 18 19 19 20 20 21 21 23 24 25 25 26 26 26 27 28 29 30 30 30 30 31 31 30 30 30 30 30 30 30 31 30 30 29 29 28 28 28 28 28 28 29
16 17 18 19 20 21 21 22 22 23 24 25 26 26 26 26 26 27 28 29 29 29 29 29 28 28 28 29 29 29 29 29 28 28 28 28 27 27 27 26 26 27 27 28
15 16 17 18 19 20 21 22 23 23 24 24 25 25 25 25 25 26 26 27 27 27 27 27 27 27 27 27 27 27 27 27 26 26 26 26 26 26 25 25 25 25 25 25
14 15 16 16 17 18 20 21 21 22 22 23 23 23 23 23 23 24 25 25 26 26 26 26 26 25 26 26 26 25 25 25 25 24 24 24 24 24 23 23 22 22 22 22
14 14 15 15 16 17 17 18 19 19 20 20 21 21 21 21 22 22 23 24 24 24 24 24 24 24 24 24 24 24 24 24 23 23 22 22 22 21 21 20 19 19 19 19
13 14 14 15 15 16 16 17 17 17 18 18 19 20 20 21 21 22 22 22 23 23 22 22 22 22 22 23 23 23 22 22 22 21 20 20 19 19 19 18 18 17 17 16
13 14 14 14 15 15 15 15 15 16 17 18 18 19 19 20 20 20 20 20 21 21 21 21 21 21 21 21 21 21 20 20 19 19 18 18 17 17 17 17 17 17 16 16
13 13 12 12 13 13 13 14 14 15 16 16 17 17 17 18 18 18 18 18 18 19 19 19 19 19 18 18 18 17 17 17 17 16 16 16 15 15 15 15 15 15 15 14
12 11 11 11 11 11 12 12 12 13 13 13 13 14 14 15 15 15 16 16 17 17 17 17 17 16 15 15 15 14 14 14 14 14 14 14 14 14 14 14 14 14 13 13
11 11 12 11 11 11 11 11 11 11 11 11 11 11 12 12 13 13 14 14 14 14 14 14 14 13 13 13 13 12 12 12 12 12 13 12 12 12 11 11 11 11 10 10
11 11 11 11 11 11 11 11 10 10 11 11 10 10 11 11 12 12 12 12 12 11 11 11 11 11 11 11 11 11 11 10 10 10 10 10 10 10 9 9 8 8 7 7
11 11 11 11 11 10 10 10 10 10 9 10 10 10 10 10 10 10 10 9 9 9 9 10 9 9 9 9 9 9 9 9 9 9 8 9 9 8 7 6 6 6 6 6

GEFSNGP_500_meanwind_234.txt.gz
Wind_Speed
33 34 36 37 37 38 39 40 41 40 40 39 39 39 39 39 39 39 40 41 42 43 43 44 44 44 44 44 44 45 45 45 45 45 45 45 46 46 46 45 45 45 45 46
31 33 35 36 36 37 38 38 39 40 40 39 38 38 39 39 38 39 40 41 42 42 43 44 44 45 45 45 45 44 44 44 44 45 45 44 44 45 45 45 45 45 46 46
29 31 33 35 35 36 36 36 37 38 38 39 38 38 38 39 38 38 39 40 41 42 43 43 44 44 44 45 45 44 44 43 43 43 43 43 43 43 44 44 45 45 46 46
27 29 32 32 33 34 34 34 35 36 36 37 37 37 38 39 39 38 38 39 40 41 41 42 43 43 44 44 43 43 43 42 42 42 42 42 42 42 42 43 44 45 45 45
26 28 30 30 31 32 33 33 33 34 35 36 37 37 37 38 39 38 37 37 38 40 41 41 42 43 43 43 43 43 42 42 43 43 43 43 42 42 42 43 43 44 44 44
26 27 27 27 28 30 31 31 31 32 32 34 35 36 35 36 37 37 36 36 36 37 39 40 41 41 42 42 42 42 43 43 43 44 43 43 43 43 43 43 43 43 43 44
24 25 25 25 26 28 29 29 29 30 30 31 32 34 35 35 35 36 36 36 37 37 37 38 39 40 41 41 42 42 42 42 43 43 43 43 43 43 43 42 42 42 42 43
22 23 23 24 24 26 26 27 28 28 29 30 31 32 34 35 36 35 35 36 36 36 37 37 37 38 39 39 40 41 41 42 42 43 43 43 43 42 41 41 41 41 41 42
21 21 21 22 23 25 25 26 27 27 28 29 30 32 33 34 35 36 36 35 35 36 36 37 37 37 38 38 39 39 40 40 41 41 41 41 40 40 40 40 40 40 41 42
20 21 22 22 23 23 24 24 25 26 26 27 29 30 31 33 35 36 36 36 35 35 35 35 36 37 38 38 39 39 39 39 39 39 39 39 39 39 39 40 40 40 40 40
20 20 22 22 23 23 23 23 24 24 25 26 27 28 29 31 32 33 34 35 35 36 36 36 36 37 37 38 38 38 38 38 38 38 38 38 38 38 39 39 39 38 38 37
19 19 20 22 23 23 24 25 25 25 25 26 27 28 29 30 31 32 33 33 34 35 35 35 36 36 37 38 38 38 38 37 37 37 38 38 38 38 38 37 37 36 35 35
20 20 20 21 22 23 24 25 26 26 27 27 27 26 26 27 28 30 32 33 33 34 35 36 36 36 37 37 38 37 37 37 36 37 37 37 37 36 36 36 35 35 34 33
19 20 20 21 22 23 24 25 25 26 27 27 27 26 26 26 26 28 29 31 33 34 35 35 36 36 37 37 37 36 36 36 36 35 35 35 35 35 34 33 32 32 32 32
19 19 20 20 21 22 23 24 24 24 25 26 26 26 26 26 27 28 29 29 30 31 33 34 35 35 36 36 35 35 35 35 34 34 33 33 33 33 33 32 31 31 31 30
17 19 19 19 20 21 22 22 23 23 24 25 25 25 26 26 27 27 28 28 28 28 29 30 32 33 33 33 33 33 33 33 33 32 32 32 32 32 32 32 32 31 31 30
16 18 19 19 20 21 21 21 22 23 23 24 24 25 26 26 26 26 27 27 28 28 28 28 29 30 30 31 31 31 31 31 30 30 31 31 31 31 31 31 30 31 30 30
16 17 19 19 20 20 21 21 22 23 23 23 23 24 24 25 25 26 26 27 27 28 28 28 28 28 28 29 29 29 29 30 30 30 30 29 29 29 29 29 29 29 28 27
15 16 17 18 19 20 20 21 21 22 23 23 23 24 24 24 24 25 26 26 26 27 27 28 27 27 27 27 27 27 27 28 28 28 28 28 28 28 28 27 27 26 26 25
15 16 16 17 18 19 20 20 21 21 22 22 23 23 24 23 23 23 24 24 25 25 25 25 26 26 26 26 25 25 25 25 26 26 26 26 26 25 25 25 24 24 24 24
14 15 16 16 17 18 18 18 19 20 20 21 21 21 22 22 22 22 22 22 23 24 24 24 25 25 25 25 24 23 23 24 25 25 24 24 23 23 23 23 23 22 22 22
14 14 15 15 16 17 17 18 18 19 19 20 20 21 21 21 21 22 22 22 23 23 23 23 23 23 23 23 23 23 23 22 22 22 22 22 22 21 21 21 20 20 20 20
14 14 15 15 16 16 17 18 18 18 19 19 20 20 20 21 21 21 21 21 21 21 22 22 22 22 22 22 22 21 21 20 19 19 19 20 20 20 20 19 19 19 19 19
14 14 15 15 16 16 17 17 17 17 18 19 19 19 19 19 19 19 19 19 19 20 20 20 21 21 21 21 20 20 19 19 18 18 18 18 19 19 19 19 19 18 18 18
15 15 15 15 15 15 16 16 17 17 17 17 17 17 17 17 17 17 18 18 18 18 18 18 18 18 18 18 18 18 18 18 18 18 18 18 18 18 17 17 17 17 16 16
15 15 15 15 15 15 15 15 15 15 15 15 15 14 14 14 14 15 16 16 16 15 15 15 15 15 15 15 15 16 16 17 16 16 16 16 15 15 14 14 14 14 14 14
14 14 14 14 14 14 14 14 14 14 14 13 13 13 12 12 13 13 13 13 13 13 12 12 13 13 13 13 13 13 14 14 14 14 13 13 13 12 12 11 11 11 11 11

GEFSNGP_500_meanwind_240.txt.gz
Wind_Speed
28 29 31 33 34 37 38 37 37 36 36 36 36 37 37 38 38 39 40 40 40 41 43 44 45 45 45 46 47 47 47 47 47 47 47 47 47 47 47 47 47 47 46 46
25 27 29 30 32 34 36 37 37 36 35 34 35 36 36 37 37 39 39 39 40 41 42 43 44 45 46 46 47 47 47 47 47 47 47 47 47 47 47 46 46 46 46 46
24 25 28 30 31 33 34 35 36 36 35 35 35 34 35 36 37 38 39 39 39 41 42 43 44 44 45 46 47 47 47 47 47 47 47 46 47 47 47 46 46 46 46 47
22 24 26 27 30 31 32 33 35 36 37 37 37 36 35 35 36 37 38 38 39 40 41 42 43 44 44 44 45 46 47 47 47 47 46 46 46 46 46 46 46 46 47 47
21 22 23 25 27 30 31 31 33 34 36 37 37 37 36 35 36 37 37 38 39 39 40 41 42 43 44 44 44 45 46 46 46 46 46 46 46 46 46 45 46 46 46 47
20 21 22 23 24 26 29 30 31 31 32 34 35 35 35 36 36 36 37 38 38 39 39 40 41 42 42 43 43 44 45 45 46 46 46 46 46 45 45 45 45 45 46 46
19 20 21 22 22 24 26 27 29 29 30 31 33 33 34 35 36 36 37 37 37 38 38 39 40 40 41 41 42 43 43 44 45 45 45 45 45 45 45 45 44 44 45 45
19 20 21 21 21 22 23 24 26 27 29 30 31 32 33 34 35 35 36 36 37 37 36 37 38 38 39 40 40 40 41 41 42 43 43 44 44 44 44 44 44 44 44 44
18 19 20 21 21 21 22 23 23 25 26 27 28 29 30 32 33 33 34 34 35 35 35 36 37 37 38 38 39 39 40 40 40 41 41 42 42 42 42 42 42 42 42 42
16 17 19 20 21 22 22 22 23 23 25 26 27 27 28 29 30 32 32 32 33 34 34 36 36 36 37 37 37 37 38 39 39 40 40 40 40 40 40 40 41 41 40 40
15 16 17 19 20 21 22 23 24 23 24 25 25 26 27 27 28 30 30 31 32 33 33 34 35 35 35 36 36 37 37 37 38 38 38 38 38 38 38 38 39 39 38 38
15 16 16 17 19 20 21 22 23 24 25 26 25 25 26 27 28 28 29 30 30 31 32 32 33 34 34 35 35 36 37 37 37 37 38 38 37 37 37 37 37 37 37 36
16 17 17 17 17 18 19 21 23 23 24 25 25 26 26 26 27 27 28 28 28 29 30 31 32 33 33 33 34 35 35 36 36 36 36 37 37 37 36 36 36 36 36 36
16 17 18 18 18 18 18 20 21 22 22 23 24 24 25 26 26 27 27 27 28 28 29 29 30 31 32 33 34 34 35 35 35 35 35 36 36 36 36 35 35 36 36 36
16 17 18 18 19 19 19 19 20 21 22 23 24 24 24 25 26 26 26 27 27 28 28 28 28 28 29 31 32 33 34 34 35 35 35 35 35 35 34 34 34 34 35 34
15 16 17 17 18 19 19 19 20 21 22 23 24 24 24 25 26 26 26 26 26 27 27 27 28 28 29 29 30 31 32 33 33 34 34 33 33 33 33 33 33 33 33 33
15 15 16 16 17 18 19 19 19 20 21 22 23 23 24 24 25 25 25 25 25 26 26 27 28 28 29 29 29 30 30 30 31 31 32 31 31 31 32 31 31 31 31 30
14 15 15 16 16 17 18 19 19 19 20 21 22 22 22 23 24 25 25 26 26 26 26 27 27 28 28 28 28 29 29 29 29 29 29 29 29 30 30 30 30 30 30 29
14 15 15 15 16 17 18 19 19 20 20 20 20 21 21 22 23 24 24 25 26 26 26 26 26 27 27 27 27 27 28 28 27 27 27 28 28 27 27 27 28 27 27 28
13 13 13 14 15 16 17 18 18 19 19 19 20 20 21 21 22 23 23 24 25 25 25 26 26 26 26 26 26 26 26 26 26 26 27 26 26 26 26 26 26 26 26 26
11 12 12 13 13 14 15 16 17 17 18 18 19 20 20 21 21 22 22 23 23 23 23 24 24 24 24 24 24 24 25 25 25 24 24 25 25 25 25 25 25 24 24 24
11 12 13 13 14 14 14 15 16 16 17 17 18 19 19 20 20 21 21 21 22 22 22 22 22 23 23 23 23 23 23 24 23 23 23 24 24 23 23 23 23 22 22 22
12 13 13 14 14 14 14 15 15 16 17 17 18 18 19 19 20 20 21 21 21 22 22 23 23 23 22 22 23 23 22 22 22 22 22 22 22 22 22 21 21 21 21 20
13 13 14 14 14 14 14 14 15 15 16 16 17 18 18 19 19 20 20 21 21 21 21 22 22 22 22 21 21 21 21 21 21 21 21 21 21 20 20 20 20 20 20 19
13 14 14 14 14 14 14 14 14 15 15 16 17 17 18 18 18 18 19 19 20 19 19 20 20 21 20 20 20 20 20 20 20 20 20 20 19 19 19 19 19 18 18 17
14 15 15 15 15 15 15 15 15 15 16 16 17 17 16 16 16 15 16 17 17 17 17 18 18 18 18 18 18 18 19 19 19 19 19 18 17 17 17 17 17 16 16 16
14 15 15 15 15 15 14 14 14 14 14 14 14 14 14 14 13 14 14 14 14 14 15 15 15 15 15 15 15 16 16 16 16 16 16 15 15 14 14 14 14 14 14 14